Previsão horária em Juncewo

Hoje, 21 Junho, Segunda-feira

Tempo Temperatura Precipitação Vento Pressão Humidade
00:00 +21°C° 0.2 mm 2 m/s 750 mmHg 93%
01:00 +20°C° 0.2 mm 2 m/s 750 mmHg 94%
02:00 +20°C° 0.2 mm 2 m/s 750 mmHg 93%
03:00 +20°C° 0.2 mm 2 m/s 749 mmHg 92%
04:00 +20°C° 0.2 mm 3 m/s 749 mmHg 91%
05:00 +21°C° 0.5 mm 3 m/s 749 mmHg 87%
06:00 +23°C° 0.5 mm 2 m/s 749 mmHg 84%
07:00 +24°C° 0.5 mm 2 m/s 749 mmHg 81%
08:00 +27°C° 0 mm 3 m/s 749 mmHg 72%
09:00 +29°C° 0 mm 4 m/s 749 mmHg 63%
10:00 +32°C° 0 mm 4 m/s 749 mmHg 55%
11:00 +32°C° 0 mm 4 m/s 749 mmHg 53%
12:00 +32°C° 0 mm 4 m/s 749 mmHg 52%
13:00 +32°C° 0 mm 4 m/s 749 mmHg 50%
14:00 +32°C° 0.2 mm 4 m/s 749 mmHg 49%
15:00 +32°C° 0.2 mm 4 m/s 749 mmHg 47%
16:00 +32°C° 0.2 mm 4 m/s 749 mmHg 46%
17:00 +28°C° 0.4 mm 4 m/s 749 mmHg 60%
18:00 +25°C° 0.4 mm 3 m/s 750 mmHg 73%
19:00 +21°C° 0.4 mm 3 m/s 751 mmHg 87%
20:00 +21°C° 0.1 mm 3 m/s 751 mmHg 89%
21:00 +20°C° 0.1 mm 3 m/s 751 mmHg 91%
22:00 +19°C° 0.1 mm 2 m/s 751 mmHg 94%
23:00 +18°C° 0 mm 3 m/s 752 mmHg 95%

Amanhã, 22 Junho, Terça-feira

Tempo Temperatura Precipitação Vento Pressão Humidade
00:00 +17°C° 0 mm 3 m/s 752 mmHg 96%
01:00 +16°C° 0 mm 3 m/s 752 mmHg 96%
02:00 +16°C° 0 mm 3 m/s 753 mmHg 96%
03:00 +14°C° 0 mm 3 m/s 753 mmHg 96%
04:00 +14°C° 0 mm 3 m/s 753 mmHg 96%
05:00 +14°C° 0 mm 3 m/s 754 mmHg 92%
06:00 +16°C° 0 mm 3 m/s 754 mmHg 88%
07:00 +15°C° 0 mm 4 m/s 754 mmHg 84%
08:00 +18°C° 0 mm 3 m/s 754 mmHg 77%
09:00 +19°C° 0 mm 3 m/s 755 mmHg 70%
10:00 +21°C° 0 mm 3 m/s 755 mmHg 64%
11:00 +22°C° 0 mm 3 m/s 755 mmHg 60%
12:00 +24°C° 0 mm 3 m/s 755 mmHg 56%
13:00 +25°C° 0 mm 3 m/s 755 mmHg 53%
14:00 +25°C° 0 mm 3 m/s 755 mmHg 56%
15:00 +24°C° 0 mm 3 m/s 755 mmHg 59%
16:00 +22°C° 0 mm 3 m/s 755 mmHg 62%
17:00 +21°C° 0 mm 3 m/s 755 mmHg 64%
18:00 +20°C° 0 mm 4 m/s 756 mmHg 66%
19:00 +20°C° 0 mm 4 m/s 756 mmHg 67%
20:00 +19°C° 0 mm 4 m/s 756 mmHg 67%
21:00 +18°C° 0 mm 4 m/s 757 mmHg 67%
22:00 +17°C° 0 mm 4 m/s 757 mmHg 67%
23:00 +16°C° 0 mm 3 m/s 757 mmHg 68%

Depois de amanhã, 23 Junho, Quarta-feira

Tempo Temperatura Precipitação Vento Pressão Humidade
00:00 +16°C° 0 mm 3 m/s 757 mmHg 68%
01:00 +16°C° 0 mm 2 m/s 757 mmHg 69%
02:00 +16°C° 0 mm 2 m/s 757 mmHg 69%
03:00 +16°C° 0 mm 2 m/s 757 mmHg 68%
04:00 +16°C° 0 mm 2 m/s 758 mmHg 68%
05:00 +16°C° 0 mm 2 m/s 758 mmHg 67%
06:00 +16°C° 0 mm 2 m/s 758 mmHg 67%
07:00 +16°C° 0 mm 2 m/s 758 mmHg 67%
08:00 +17°C° 0 mm 2 m/s 759 mmHg 63%
09:00 +18°C° 0 mm 2 m/s 759 mmHg 59%
10:00 +19°C° 0 mm 2 m/s 759 mmHg 55%
11:00 +21°C° 0 mm 2 m/s 759 mmHg 53%
12:00 +23°C° 0 mm 2 m/s 759 mmHg 51%
13:00 +24°C° 0 mm 2 m/s 759 mmHg 48%
14:00 +24°C° 0 mm 2 m/s 759 mmHg 48%
15:00 +25°C° 0 mm 1 m/s 759 mmHg 48%
16:00 +25°C° 0 mm 1 m/s 759 mmHg 48%
17:00 +24°C° 0.3 mm 1 m/s 758 mmHg 56%
18:00 +23°C° 0.3 mm 1 m/s 758 mmHg 64%
19:00 +22°C° 0.3 mm 1 m/s 758 mmHg 73%
20:00 +21°C° 0.6 mm 1 m/s 758 mmHg 78%
21:00 +20°C° 0.6 mm 1 m/s 759 mmHg 84%
22:00 +19°C° 0.6 mm 1 m/s 759 mmHg 90%
23:00 +19°C° 0.1 mm 1 m/s 759 mmHg 90%

24 Junho, Quinta-feira

Tempo Temperatura Precipitação Vento Pressão Humidade
00:00 +18°C° 0.1 mm 1 m/s 759 mmHg 91%
01:00 +18°C° 0.1 mm 1 m/s 759 mmHg 91%
02:00 +18°C° 0 mm 1 m/s 759 mmHg 91%
03:00 +18°C° 0 mm 1 m/s 758 mmHg 91%
04:00 +18°C° 0 mm 1 m/s 758 mmHg 91%
05:00 +18°C° 0 mm 1 m/s 758 mmHg 90%
06:00 +18°C° 0 mm 1 m/s 758 mmHg 89%
07:00 +19°C° 0 mm 1 m/s 759 mmHg 88%
08:00 +19°C° 0 mm 1 m/s 759 mmHg 85%
09:00 +20°C° 0 mm 1 m/s 759 mmHg 82%
10:00 +20°C° 0 mm 2 m/s 759 mmHg 79%
11:00 +21°C° 0.1 mm 2 m/s 758 mmHg 75%
12:00 +23°C° 0.1 mm 2 m/s 758 mmHg 71%
13:00 +24°C° 0.1 mm 1 m/s 758 mmHg 67%
14:00 +24°C° 0.1 mm 2 m/s 758 mmHg 66%
15:00 +25°C° 0.1 mm 2 m/s 758 mmHg 64%
16:00 +25°C° 0.1 mm 2 m/s 758 mmHg 63%
17:00 +24°C° 0.1 mm 2 m/s 757 mmHg 67%
18:00 +24°C° 0.1 mm 2 m/s 757 mmHg 71%
19:00 +23°C° 0.1 mm 2 m/s 757 mmHg 75%
20:00 +21°C° 0 mm 2 m/s 757 mmHg 79%
21:00 +19°C° 0 mm 2 m/s 757 mmHg 83%
22:00 +18°C° 0 mm 3 m/s 756 mmHg 87%
23:00 +17°C° 0 mm 2 m/s 756 mmHg 89%

25 Junho, Sexta-feira

Tempo Temperatura Precipitação Vento Pressão Humidade
00:00 +17°C° 0 mm 2 m/s 756 mmHg 91%
01:00 +16°C° 0 mm 2 m/s 756 mmHg 93%
02:00 +16°C° 0 mm 2 m/s 756 mmHg 93%
03:00 +15°C° 0 mm 2 m/s 756 mmHg 93%
04:00 +15°C° 0 mm 2 m/s 756 mmHg 93%
05:00 +16°C° 0 mm 3 m/s 756 mmHg 87%
06:00 +18°C° 0 mm 3 m/s 756 mmHg 81%
07:00 +19°C° 0 mm 3 m/s 756 mmHg 75%
08:00 +21°C° 0 mm 3 m/s 756 mmHg 69%
09:00 +22°C° 0 mm 3 m/s 756 mmHg 64%
10:00 +25°C° 0 mm 3 m/s 756 mmHg 58%
11:00 +25°C° 0 mm 3 m/s 756 mmHg 56%
12:00 +26°C° 0 mm 3 m/s 756 mmHg 53%
13:00 +26°C° 0 mm 3 m/s 755 mmHg 51%
14:00 +25°C° 0 mm 4 m/s 755 mmHg 53%
15:00 +25°C° 0 mm 4 m/s 755 mmHg 56%
16:00 +23°C° 0 mm 4 m/s 755 mmHg 59%
17:00 +22°C° 0.3 mm 4 m/s 755 mmHg 65%
18:00 +21°C° 0.3 mm 4 m/s 756 mmHg 71%
19:00 +20°C° 0.3 mm 4 m/s 756 mmHg 78%
20:00 +19°C° 0 mm 4 m/s 756 mmHg 82%
21:00 +18°C° 0 mm 3 m/s 756 mmHg 86%
22:00 +16°C° 0 mm 2 m/s 756 mmHg 91%
23:00 +16°C° 0 mm 2 m/s 756 mmHg 92%

26 Junho, Sábado

Tempo Temperatura Precipitação Vento Pressão Humidade
00:00 +15°C° 0 mm 2 m/s 756 mmHg 93%
01:00 +14°C° 0 mm 3 m/s 756 mmHg 95%
02:00 +15°C° 0 mm 2 m/s 756 mmHg 95%
03:00 +15°C° 0 mm 2 m/s 756 mmHg 96%
04:00 +14°C° 0 mm 2 m/s 756 mmHg 96%
05:00 +14°C° 0 mm 3 m/s 757 mmHg 93%
06:00 +16°C° 0 mm 3 m/s 757 mmHg 89%
07:00 +17°C° 0 mm 4 m/s 757 mmHg 86%
08:00 +18°C° 0 mm 4 m/s 757 mmHg 82%
09:00 +19°C° 0 mm 4 m/s 757 mmHg 77%
10:00 +19°C° 0 mm 4 m/s 757 mmHg 73%
11:00 +20°C° 0 mm 4 m/s 757 mmHg 72%
12:00 +20°C° 0 mm 4 m/s 757 mmHg 70%
13:00 +20°C° 0 mm 4 m/s 757 mmHg 68%
14:00 +21°C° 0 mm 4 m/s 757 mmHg 67%
15:00 +21°C° 0 mm 3 m/s 757 mmHg 66%
16:00 +22°C° 0 mm 3 m/s 757 mmHg 64%
17:00 +21°C° 0 mm 3 m/s 757 mmHg 66%
18:00 +21°C° 0 mm 2 m/s 756 mmHg 67%
19:00 +21°C° 0 mm 2 m/s 756 mmHg 68%
20:00 +20°C° 0 mm 2 m/s 757 mmHg 72%
21:00 +19°C° 0 mm 2 m/s 757 mmHg 76%
22:00 +17°C° 0 mm 2 m/s 757 mmHg 79%
23:00 +16°C° 0 mm 2 m/s 757 mmHg 81%
Mostrar mais

Necessitamos do seu Consentimento

A Meteoprog e os seus Fornecedores de Serviços podem armazenar e aceder a dados pessoais como cookies, identificadores do dispositivo ou outras tecnologias semelhantes existentes no seu dispositivo e processar estes dados para personalizar conteúdos e anúncios, assim como funcionalidades nas redes sociais e análise de tráfego.

  • Armazenar e/ou aceder a informações no seu dispositivo

    Os cookies, identificadores do dispositivo ou outras informações podem ser armazenados ou acedidos no seu dispositivo, para os fins acima indicados.

  • Anúncios e conteúdos personalizados, medição de anúncios e conteúdos, dados sobre o público-alvo e desenvolvimento de produtos

    Os anúncios e os conteúdos podem ser personalizados com base num perfil. Podem ser adicionados dados adicionais para uma maior personalização dos anúncios e dos conteúdos. A eficácia dos anúncios e dos conteúdos pode ser medida. Podem ser obtidas informações sobre o público que visualizou os anúncios e os conteúdos. Estes dados podem ser usados para desenvolver ou melhorar sistemas, softwares ou a experiência do utilizador.

Ao clicar em "Eu concordo”, permitirá o uso de cookies, identificadores do dispositivo e web beacons mencionados ou outras tecnologias semelhantes. As configurações do navegador do seu dispositivo podem ser alteradas.

Para certos fins, podem ser invocados interesses legítimos ao invés de consentimento. Pode ler mais informação sobre este assunto na nossa Política de Privacidade e Cookies.